Latest Weather Observations for Mount Crawford

IDS60901

Issued at 5:21 pm CST Sunday 30 August 2015 (issued every 10 minutes, with the page automatically refreshed every 10 minutes)

About weather observations | Map of Adelaide area stations | Latest observations for Adelaide area | Other Formats
Station Details ID: 023878 Name: MT CRAWFORD AWS Lat: -34.73 Lon: 138.93 Height: 525.0 m
Data from the previous 72 hours. | See also: Recent months at Mount Crawford
Date/Time
CST
Tmp

°C
App
Tmp
°C
Dew
Point
°C
Rel
Hum
%
Delta-T

°C
Wind Press
QNH
hPa
Press
MSL
hPa
Rain
since
9 am
mm
Dir
 
Spd
km/h
Gust
km/h
Spd
kts
Gust
kts
30/05:00pm 11.0 8.2 3.3 59 3.5 NNE 7 11 4 6 1021.8 1022.1 0.0
30/04:30pm 11.1 7.2 3.2 58 3.6 N 13 17 7 9 1021.7 1022.0 0.0
30/04:00pm 11.4 8.2 3.2 57 3.7 NNE 9 17 5 9 1021.9 1022.2 0.0
30/03:30pm 11.3 8.5 3.3 58 3.6 NNE 7 17 4 9 1022.0 1022.3 0.0
30/03:00pm 11.2 7.6 2.8 56 3.7 NNE 11 17 6 9 1022.2 1022.5 0.0
30/02:30pm 11.6 8.6 3.9 59 3.5 NNE 9 13 5 7 1022.5 1022.9 0.0
30/02:00pm 11.2 7.6 3.0 57 3.7 N 11 20 6 11 1022.7 1023.1 0.0
30/01:30pm 11.3 8.2 3.6 59 3.5 NNW 9 19 5 10 1023.0 1023.4 0.0
30/01:00pm 10.0 6.8 3.1 62 3.1 NE 9 13 5 7 1023.5 1023.8 0.0
30/12:30pm 10.5 6.7 3.8 63 3.0 NNE 13 19 7 10 1023.9 1024.2 0.0
30/12:00pm 9.7 5.8 3.2 64 2.9 NE 13 20 7 11 1024.3 1024.7 0.0
30/11:30am 10.0 5.5 4.4 68 2.6 NE 17 20 9 11 1024.4 1024.8 0.0
30/11:00am 9.2 4.3 4.0 70 2.4 NE 19 24 10 13 1024.7 1025.1 0.0
30/10:30am 8.2 3.1 4.0 75 1.9 NE 20 28 11 15 1024.9 1025.3 0.0
30/10:00am 7.9 2.9 3.4 73 2.0 NE 19 22 10 12 1025.2 1025.5 0.0
30/09:30am 7.2 2.2 3.6 78 1.6 ENE 19 26 10 14 1025.4 1025.7 0.0
30/09:00am 6.1 1.0 3.1 81 1.3 ENE 19 26 10 14 1025.5 1025.8 0.0
30/08:30am 5.4 1.2 3.6 88 0.8 ENE 15 20 8 11 1025.5 1025.8 0.0
30/08:00am 4.3 -0.8 3.0 91 0.5 ENE 19 26 10 14 1025.4 1025.7 0.0
30/07:30am 3.6 -1.1 2.9 95 0.3 E 17 22 9 12 1025.2 1025.5 0.0
30/07:00am 2.8 -2.4 2.7 99 0.0 E 19 26 10 14 1024.9 1025.3 0.0
30/06:30am 2.5 -2.9 2.4 99 0.0 E 20 26 11 14 1024.6 1025.0 0.0
30/06:00am 2.4 -3.1 2.1 98 0.1 E 20 24 11 13 1024.4 1024.8 0.0
30/05:30am 2.6 -2.8 2.2 97 0.2 E 20 26 11 14 1024.3 1024.7 0.0
30/05:00am 2.6 -2.9 2.0 96 0.2 E 20 26 11 14 1024.3 1024.7 0.0
30/04:30am 2.5 -3.0 1.8 95 0.3 E 20 26 11 14 1024.2 1024.6 0.0
30/04:00am 2.5 -3.1 1.5 93 0.4 E 20 26 11 14 1024.4 1024.8 0.0
30/03:30am 2.7 -2.9 1.4 91 0.5 E 20 24 11 13 1024.7 1025.1 0.0
30/03:00am 2.9 -2.7 1.1 88 0.7 E 20 24 11 13 1024.9 1025.3 0.0
30/02:30am 3.0 -2.6 1.1 87 0.7 E 20 24 11 13 1025.0 1025.4 0.0
30/02:00am 3.2 -2.8 0.9 85 0.9 ESE 22 28 12 15 1025.4 1025.7 0.0
30/01:30am 3.2 -2.8 0.8 84 0.9 ESE 22 28 12 15 1025.6 1025.9 0.0
30/01:00am 3.5 -2.9 0.7 82 1.1 ESE 24 28 13 15 1026.0 1026.4 0.0
30/12:30am 3.7 -2.7 0.9 82 1.1 ESE 24 28 13 15 1025.9 1026.3 0.0
30/12:00am 3.7 -2.6 1.3 84 1.0 ESE 24 30 13 16 1025.8 1026.2 0.0
 
Date/Time
CST
Tmp

°C
App
Tmp
°C
Dew
Point
°C
Rel
Hum
%
Delta-T

°C
Wind Press
QNH
hPa
Press
MSL
hPa
Rain
since
9 am
mm
Dir
 
Spd
km/h
Gust
km/h
Spd
kts
Gust
kts
29/11:30pm 3.8 -2.5 1.4 84 1.0 ESE 24 30 13 16 1025.9 1026.3 0.0
29/11:00pm 3.9 -2.0 1.8 86 0.9 ESE 22 28 12 15 1026.2 1026.6 0.0
29/10:30pm 4.2 -1.6 2.2 87 0.8 SE 22 28 12 15 1026.3 1026.7 0.0
29/10:00pm 4.4 -1.4 2.4 87 0.8 SE 22 28 12 15 1026.3 1026.7 0.0
29/09:30pm 4.3 -1.0 3.0 91 0.5 SE 20 28 11 15 1026.4 1026.8 0.0
29/09:00pm 4.6 -1.0 3.4 92 0.5 SE 22 32 12 17 1026.3 1026.7 0.0
29/08:30pm 4.9 -0.2 4.0 94 0.4 SE 20 28 11 15 1026.1 1026.5 0.0
29/08:00pm 5.2 0.1 4.2 93 0.4 ESE 20 24 11 13 1025.9 1026.3 0.0
29/07:30pm 5.5 0.6 4.3 92 0.5 ESE 19 24 10 13 1025.9 1026.3 0.0
29/07:00pm 6.2 1.4 4.4 88 0.8 ESE 19 24 10 13 1025.9 1026.3 0.0
29/06:30pm 6.5 2.5 4.7 88 0.8 ESE 15 19 8 10 1025.8 1026.2 0.0
29/06:00pm 6.6 2.5 4.6 87 0.9 ESE 15 19 8 10 1025.5 1025.8 0.0
29/05:30pm 6.9 2.8 4.4 84 1.1 ESE 15 20 8 11 1025.2 1025.5 0.0
29/05:00pm 7.4 2.4 3.6 77 1.7 SE 19 24 10 13 1025.0 1025.4 0.0
29/04:30pm 7.8 3.2 3.7 75 1.8 ESE 17 22 9 12 1025.0 1025.4 0.0
29/04:00pm 7.8 3.3 4.4 79 1.5 ESE 17 20 9 11 1024.9 1025.3 0.0
29/03:30pm 8.1 3.7 5.0 81 1.4 ESE 17 22 9 12 1025.0 1025.4 0.0
29/03:00pm 8.4 3.7 5.0 79 1.6 ESE 19 24 10 13 1025.4 1025.7 0.0
29/02:30pm 8.8 4.2 5.5 80 1.5 ESE 19 26 10 14 1025.5 1025.8 0.0
29/02:00pm 8.8 5.2 3.2 68 2.5 S 11 15 6 8 1025.5 1025.8 0.0
29/01:30pm 8.1 4.4 4.3 77 1.7 SE 13 19 7 10 1025.7 1026.0 0.0
29/01:00pm 7.7 4.7 5.8 88 0.9 ESE 11 19 6 10 1026.1 1026.5 0.0
29/12:30pm 8.0 4.0 5.1 82 1.3 SE 15 22 8 12 1026.5 1026.9 0.0
29/12:00pm 8.5 4.5 6.8 89 0.8 ESE 17 22 9 12 1026.9 1027.3 0.0
29/11:30am 7.3 3.2 6.1 92 0.6 ESE 17 22 9 12 1027.4 1027.8 0.0
29/11:00am 7.7 3.4 7.0 95 0.3 ESE 19 28 10 15 1027.3 1027.6 0.0
29/10:30am 6.9 2.9 6.8 99 0.0 ESE 17 24 9 13 1027.4 1027.8 0.0
29/10:00am 7.1 3.2 7.0 99 0.0 ESE 17 26 9 14 1027.4 1027.8 0.0
29/09:30am 6.7 3.1 6.6 99 0.0 SE 15 22 8 12 1027.4 1027.8 0.0
29/09:00am 6.7 3.1 6.6 99 0.0 SE 15 20 8 11 1027.3 1027.6 0.2
29/08:30am 6.6 3.3 6.6 100 0.0 ESE 13 22 7 12 1027.0 1027.4 0.2
29/08:00am 6.0 2.2 5.9 99 0.0 SE 15 19 8 10 1026.9 1027.3 0.2
29/07:30am 5.7 1.9 5.6 99 0.0 SSE 15 17 8 9 1026.5 1026.9 0.2
29/07:00am 5.6 2.1 5.5 99 0.0 SSE 13 17 7 9 1026.3 1026.7 0.2
29/06:30am 6.2 2.8 6.1 99 0.0 SSE 13 17 7 9 1026.0 1026.4 0.2
29/06:00am 5.9 2.9 5.9 100 0.0 SE 11 15 6 8 1025.9 1026.3 0.2
29/05:30am 5.9 2.5 5.9 100 0.0 SE 13 15 7 8 1025.8 1026.2 0.2
29/05:00am 5.5 2.0 5.5 100 0.0 SE 13 17 7 9 1025.8 1026.2 0.2
29/04:30am 4.6 0.9 4.6 100 0.0 SE 13 19 7 10 1025.8 1026.2 0.2
29/04:00am 5.2 1.6 5.2 100 0.0 SSE 13 17 7 9 1025.9 1026.3 0.2
29/03:30am 5.3 1.8 5.3 100 0.0 SSE 13 15 7 8 1026.0 1026.4 0.2
29/03:00am 5.4 1.9 5.4 100 0.0 SSE 13 17 7 9 1026.2 1026.6 0.2
29/02:30am 5.7 2.6 5.6 99 0.0 SSE 11 13 6 7 1026.5 1026.9 0.2
29/02:00am 5.1 1.5 5.0 99 0.0 SE 13 15 7 8 1026.7 1027.1 0.2
29/01:30am 5.6 1.7 5.5 99 0.0 SSE 15 19 8 10 1026.9 1027.3 0.2
29/01:00am 5.4 1.1 5.3 99 0.0 SSE 17 22 9 12 1027.1 1027.5 0.2
29/12:30am 5.6 1.4 5.5 99 0.0 SSE 17 19 9 10 1026.9 1027.3 0.2
29/12:00am 5.7 1.3 5.0 95 0.3 SSE 17 22 9 12 1026.8 1027.2 0.2
 
Date/Time
CST
Tmp

°C
App
Tmp
°C
Dew
Point
°C
Rel
Hum
%
Delta-T

°C
Wind Press
QNH
hPa
Press
MSL
hPa
Rain
since
9 am
mm
Dir
 
Spd
km/h
Gust
km/h
Spd
kts
Gust
kts
28/11:30pm 5.8 1.3 4.4 91 0.6 SSE 17 19 9 10 1027.0 1027.4 0.2
28/11:00pm 5.9 1.2 3.1 82 1.2 SSE 17 20 9 11 1027.1 1027.5 0.2
28/10:30pm 6.0 1.6 2.5 78 1.5 SE 15 17 8 9 1027.4 1027.8 0.2
28/10:00pm 6.3 1.5 2.6 77 1.6 SSE 17 20 9 11 1027.5 1027.9 0.2
28/09:30pm 5.9 0.6 3.1 82 1.2 SE 20 24 11 13 1027.4 1027.8 0.2
28/09:00pm 5.8 0.2 3.5 85 1.0 SSE 22 26 12 14 1027.1 1027.5 0.2
28/08:30pm 5.7 0.2 3.9 88 0.8 SSE 22 28 12 15 1026.9 1027.3 0.2
28/08:00pm 5.5 0.3 3.5 87 0.9 SE 20 28 11 15 1026.6 1027.0 0.2
28/07:30pm 5.7 0.6 4.2 90 0.7 SE 20 26 11 14 1026.4 1026.8 0.2
28/07:00pm 6.1 0.8 4.9 92 0.5 SSE 22 26 12 14 1026.4 1026.8 0.2
28/06:30pm 6.0 1.7 5.3 95 0.3 SE 17 24 9 13 1026.3 1026.7 0.2
28/06:00pm 6.5 2.3 5.6 94 0.4 SE 17 28 9 15 1026.1 1026.5 0.2
28/05:30pm 7.0 2.4 5.6 91 0.6 SSE 19 24 10 13 1026.0 1026.4 0.2
28/05:00pm 7.7 4.4 6.2 90 0.7 SE 13 22 7 12 1026.1 1026.5 0.2
28/04:30pm 8.0 3.5 6.3 89 0.8 SSE 19 26 10 14 1025.9 1026.3 0.2
28/04:00pm 8.2 4.2 6.5 89 0.8 S 17 22 9 12 1025.9 1026.3 0.2
28/03:30pm 8.5 5.0 5.4 81 1.4 S 13 19 7 10 1026.0 1026.4 0.2
28/03:00pm 9.2 6.5 5.8 79 1.6 SSE 9 13 5 7 1026.2 1026.6 0.2
28/02:30pm 8.4 5.4 5.9 84 1.2 SSE 11 17 6 9 1026.4 1026.8 0.2
28/02:00pm 8.4 5.1 6.5 88 0.9 SSW 13 19 7 10 1026.4 1026.8 0.2
28/01:30pm 8.2 5.0 6.8 91 0.7 S 13 17 7 9 1026.5 1026.9 0.2
28/01:00pm 7.5 3.4 6.3 92 0.6 SSE 17 22 9 12 1026.9 1027.3 0.2
28/12:30pm 8.8 6.7 5.9 82 1.4 SE 6 13 3 7 1027.3 1027.6 0.0
28/12:00pm 7.3 3.8 7.2 99 0.0 SE 15 20 8 11 1027.8 1028.2 0.0
28/11:30am 7.2 3.6 6.6 96 0.3 SE 15 19 8 10 1028.2 1028.6 0.0
28/11:00am 7.4 4.2 7.0 97 0.2 SE 13 20 7 11 1028.4 1028.8 0.0
28/10:30am 7.5 3.1 6.6 94 0.4 SE 19 28 10 15 1028.4 1028.8 0.0
28/10:00am 7.3 3.4 7.2 99 0.0 ESE 17 24 9 13 1028.5 1028.9 0.0
28/09:30am 7.1 2.8 7.1 100 0.0 SE 19 26 10 14 1028.5 1028.9 0.0
28/09:00am 6.6 2.2 6.6 100 0.0 SE 19 26 10 14 1028.3 1028.7 0.8
28/08:30am 6.1 2.0 6.1 100 0.0 ESE 17 24 9 13 1028.1 1028.5 0.8
28/08:00am 5.8 1.2 5.8 100 0.0 ESE 19 24 10 13 1027.8 1028.2 0.8
28/07:30am 5.7 1.1 5.7 100 0.0 SE 19 30 10 16 1027.6 1028.0 0.8
28/07:00am 5.8 1.0 5.8 100 0.0 SE 20 32 11 17 1027.3 1027.6 0.8
28/06:30am 5.8 1.0 5.8 100 0.0 SE 20 28 11 15 1027.0 1027.4 0.6
28/06:00am 5.8 1.6 5.8 100 0.0 ESE 17 24 9 13 1026.8 1027.2 0.6
28/05:30am 5.6 2.1 5.6 100 0.0 SE 13 19 7 10 1026.8 1027.2 0.6
28/05:00am 5.7 1.1 5.7 100 0.0 ESE 19 28 10 15 1026.6 1027.0 0.6
28/04:30am 5.9 1.2 5.9 100 0.0 ESE 20 32 11 17 1026.4 1026.8 0.6
28/04:00am 6.1 1.4 6.1 100 0.0 SE 20 32 11 17 1026.3 1026.7 0.6
28/03:30am 6.0 2.6 6.0 100 0.0 SE 13 19 7 10 1026.3 1026.7 0.6
28/03:00am 6.3 1.8 6.3 100 0.0 SE 19 26 10 14 1026.2 1026.6 0.6
28/02:30am 6.2 2.1 6.2 100 0.0 SE 17 22 9 12 1026.3 1026.7 0.6
28/02:00am 6.3 1.7 6.3 100 0.0 SE 20 32 11 17 1026.1 1026.5 0.6
28/01:30am 6.4 1.4 6.4 100 0.0 SSE 22 33 12 18 1026.2 1026.6 0.6
28/01:00am 6.5 2.1 6.5 100 0.0 SE 19 30 10 16 1026.2 1026.6 0.6
28/12:30am 6.4 2.0 6.4 100 0.0 SSE 19 28 10 15 1026.1 1026.5 0.6
28/12:00am 6.1 1.6 6.0 99 0.0 SSE 19 30 10 16 1026.3 1026.7 0.6
 
Date/Time
CST
Tmp

°C
App
Tmp
°C
Dew
Point
°C
Rel
Hum
%
Delta-T

°C
Wind Press
QNH
hPa
Press
MSL
hPa
Rain
since
9 am
mm
Dir
 
Spd
km/h
Gust
km/h
Spd
kts
Gust
kts
27/11:30pm 6.0 1.3 5.9 99 0.0 S 20 28 11 15 1026.4 1026.8 0.6
27/11:00pm 5.6 1.4 5.5 99 0.0 SSE 17 30 9 16 1026.5 1026.9 0.6
27/10:30pm 5.4 0.7 5.3 99 0.0 SSW 19 24 10 13 1026.6 1027.0 0.6
27/10:00pm 5.6 1.4 5.5 99 0.0 SSW 17 24 9 13 1026.6 1027.0 0.6
27/09:30pm 5.6 1.7 5.5 99 0.0 S 15 22 8 12 1026.7 1027.1 0.6
27/09:00pm 5.6 2.1 5.5 99 0.0 SSW 13 19 7 10 1026.7 1027.1 0.6
27/08:30pm 5.9 1.3 5.6 98 0.1 SSW 19 28 10 15 1026.8 1027.2 0.6
27/08:00pm 5.6 1.6 5.0 96 0.3 SSW 15 20 8 11 1026.5 1026.9 0.6
27/07:30pm 6.0 0.7 5.0 93 0.4 SSW 22 32 12 17 1026.2 1026.6 0.6
27/07:00pm 6.1 1.5 5.7 97 0.2 SSW 19 26 10 14 1025.9 1026.3 0.6
27/06:30pm 6.6 2.1 6.2 97 0.2 S 19 24 10 13 1025.6 1025.9 0.6
27/06:00pm 6.8 3.1 6.5 98 0.1 S 15 19 8 10 1025.4 1025.7 0.6
27/05:30pm 7.6 4.1 7.2 97 0.2 S 15 22 8 12 1024.9 1025.3 0.6

Latest Capital City Observations: Canberra | Sydney | Melbourne | Brisbane | Adelaide | Perth | Hobart | Darwin

Other Formats:

Comma delimited format used in spreadsheet applications
http://www.bom.gov.au/fwo/IDS60901/IDS60901.94678.axf

JavaScript Object Notation format (JSON) in row-major order
http://www.bom.gov.au/fwo/IDS60901/IDS60901.94678.json